Regional Weather Roundup
Issued by NWS

Home | Current Version | Previous Version | Text Only | Print | Product List | Glossary On
Versions: 1 2 3 4 5 6 7 8 9 10 11 12 13 14 15 16 17 18 19 20 21 22 23 24 25 26 27 28 29 30 31 32 33 34 35 36 37 38 39 40 41 42 43 44 45 46 47 48 49 50
000
ASUS46 KSEW 220210
RWRWA

WASHINGTON REGIONAL WEATHER ROUNDUP
NATIONAL WEATHER SERVICE SEATTLE WA
700 PM PDT SUN SEP 21 2014

NOTE:"FAIR" INDICATES FEW OR NO CLOUDS BELOW 12,000 FEET WITH NO
SIGNIFICANT WEATHER AND/OR OBSTRUCTIONS TO VISIBILITY.

WAZ505-507>509-220300-
SEATTLE, TACOMA, EVERETT, AND VICINITY

CITY           SKY/WX    TMP DP  RH WIND       PRES   REMARKS
EVERETT        CLEAR     62  56  80 N9        29.87R
BOEING FIELD   CLEAR     75  56  51 S6        29.86R
RENTON         CLEAR     74  59  59 VRB5      29.86R
SEATAC AIRPORT PTCLDY    69  56  62 SW12      29.88R
JBLM-MCCHORD   PTCLDY    67  58  71 W9        29.89R
PUYALLUP       NOT AVBL
JBLM-FT LEWIS  PTCLDY    67  57  71 W12       29.89R
TACOMA NARROWS CLEAR     66  56  70 W8        29.88S
$$

WAZ001-503-506-510-514-515-220300-
NORTH INTERIOR

CITY           SKY/WX    TMP DP  RH WIND       PRES   REMARKS
BELLINGHAM     CLEAR     70  54  56 SE9       29.82R
FRIDAY HARBOR    N/A    N/A N/A N/A MISG      29.83S
EASTSOUND      CLEAR     64  55  72 S15G21    29.79S
PORT ANGELES     N/A     62  56  80 W14       29.88R
NAS WHIDBEY    PTCLDY    61  54  77 SW5       29.86R
BURLINGTON     CLEAR     64  59  82 S6        29.86R
$$

WAZ020-022-039-040-504-511-512-220300-
SOUTHWEST INTERIOR

CITY           SKY/WX    TMP DP  RH WIND       PRES   REMARKS
SHELTON        CLEAR     64  55  72 SW20G28   29.88R
OLYMPIA        CLEAR     67  57  70 S6        29.89R
CHEHALIS       NOT AVBL
KELSO          CLEAR     66  55  68 CALM      29.94S
VANCOUVER      CLEAR     82  56  40 NW7       29.85R
SCAPPOOSE, OR  CLEAR     75  58  55 N9        29.85R
PORTLAND, OR   MOCLDY    83  55  38 S10       29.85R
$$

WAZ021-516-517-220300-
WASHINGTON COAST

CITY           SKY/WX    TMP DP  RH WIND       PRES   REMARKS
FORKS          CLOUDY    59  59 100 VRB7      29.90F FOG
HOQUIAM        CLOUDY    61  60  97 S7        29.93S FOG
ASTORIA, OR    MOCLDY    61  56  83 SW9G24    29.92S
$$

WAZ019-023-024-040-518-519-220300-
CASCADE MOUNTAINS AND COLUMBIA GORGE

CITY           SKY/WX    TMP DP  RH WIND       PRES   REMARKS
STAMPEDE PASS  NOT AVBL
TROUTDALE, OR  CLEAR     83  52  34 SW8       29.83R
THE DALLES, OR PTCLDY    84  52  33 NW9       29.78R
$$

WAZ026-027-041>044-520-521-220300-
EAST SLOPES

CITY           SKY/WX    TMP DP  RH WIND       PRES   REMARKS
OMAK           CLEAR     76  45  33 S6        29.83F
WENATCHEE      PTCLDY    79  49  34 E6        29.83S
ELLENSBURG     PTCLDY    79  57  46 NE5       29.86S
YAKIMA         PTCLDY    80  50  34 CALM      29.83F
$$

WAZ028-034-035-220300-
COLUMBIA BASIN

CITY           SKY/WX    TMP DP  RH WIND       PRES   REMARKS
EPHRATA        CLEAR     80  43  26 SW6       29.83F
MOSES LAKE     CLEAR     83  41  22 W3        29.84F
PASCO          PTCLDY    82  53  36 CALM      29.80F
HERMISTON, OR  MOCLDY    78  56  46 NE5       29.80F
$$

WAZ036>038-220300-
NORTHEAST WASHINGTON

CITY           SKY/WX    TMP DP  RH WIND       PRES   REMARKS
SPOKANE GEIGER PTCLDY    81  39  22 CALM      29.90S
SPOKANE FELTS  PTCLDY    74  39  28 CALM      29.88F
FAIRCHILD AFB  CLEAR     80  39  23 N3        29.91F
COEURDALENE,ID PTCLDY    73  45  35 N6        29.89S
DEER PARK      CLEAR     73  42  32 CALM      29.89F
$$

WAZ029>033-220300-
SOUTHEAST WASHINGTON

CITY           SKY/WX    TMP DP  RH WIND       PRES   REMARKS
PULLMAN        PTCLDY    77  38  24 W3        29.93S
LEWISTON, ID   MOCLDY    85  42  22 W5        29.84S
WALLA WALLA    PTCLDY    78  52  40 S5        29.85F
PENDLETON, OR  MOCLDY    77  42  28 NE9       29.84F
$$



USA.gov is the U.S. government's official web portal to all federal, state and local government web resources and services.